Regional Weather Roundup
Issued by NWS Sioux Falls, SD

Home | Current Version | Previous Version | Graphics & Text | Print | Product List | Glossary On
Versions: 1 2 3 4 5 6 7 8 9 10 11 12 13 14 15 16 17 18 19 20 21 22 23 24 25 26 27 28 29 30 31 32 33 34 35 36 37 38 39 40 41 42 43 44 45 46 47 48 49 50
000
ASUS43 KFSD 310210
RWRFSD

WEATHER ROUNDUP FOR SE SOUTH DAKOTA/SW MINNESOTA/NW IOWA
NATIONAL WEATHER SERVICE SIOUX FALLS SD
900 PM CDT MON MAY 30 2016

NOTE: "FAIR" INDICATES FEW OR NO CLOUDS BELOW 12,000 FEET WITH NO
SIGNIFICANT WEATHER AND OR OBSTRUCTIONS TO VISIBILITY.


SDZ038>040-050-052>070-310300-
SOUTHEAST SOUTH DAKOTA

CITY           SKY/WX    TMP DP  RH WIND       PRES   REMARKS
BROOKINGS      CLOUDY    75  57  53 SE5       29.78F
CHAMBERLAIN    CLOUDY    73  57  59 NW9G16    29.79R
HURON          CLOUDY    73  62  68 SE7       29.72S
MADISON        FAIR      72  59  64 SE8       29.79F
MITCHELL       CLOUDY    74  64  71 SE8       29.75S
SIOUX FALLS    CLOUDY    72  58  61 S5        29.77S
WINNER         MOCLDY    68  53  58 W10       29.83R
YANKTON        CLOUDY    75  57  53 SE5       29.76R
$$

MNZ071-072-080-081-089-090-097-098-310300-
SOUTHWEST MINNESOTA

CITY           SKY/WX    TMP DP  RH WIND       PRES   REMARKS
FAIRMONT       PTCLDY    72  57  60 SE24G30   29.86S
JACKSON        CLEAR     75  54  46 SE21G26   29.86R
LUVERNE        PTCLDY    75  52  43 SE7       29.80S
MARSHALL       CLOUDY    76  55  48 SE9       29.80S
MONTEVIDEO     MOCLDY    77  57  50 S9        29.81S
PIPESTONE      CLOUDY    75  54  46 SE7       29.81F
REDWOOD FALLS  CLEAR     78  57  48 SE8       29.82R
TRACY          CLOUDY    76  56  49 S5        29.82S
WINDOM         CLEAR     75  57  53 CALM      29.83S
WORTHINGTON    CLEAR     76  55  48 S8        29.83F
$$

IAZ001>003-012>014-020>022-031-032-NEZ013-014-SDZ071-310300-
NORTHWEST IOWA

CITY           SKY/WX    TMP DP  RH WIND       PRES   REMARKS
CHEROKEE       CLOUDY    72  57  58 S10       29.85S
DENISON        CLOUDY    68  59  73 S12G23    29.88S
ESTHERVILLE    PTCLDY    71  59  65 SE28      29.86R
LE MARS        CLOUDY    70  63  78 S9        29.83S
ORANGE CITY    RAIN      68  63  83 S14G21    29.84R
SHELDON        PTCLDY    72  59  64 S20G28    29.82R
SIOUX CITY     PTCLDY    73  61  65 SE16      29.83S
SPENCER        CLOUDY    74  54  49 SW16G25   29.84R
STORM LAKE     CLOUDY    72  57  60 S18G24    29.86S
$$

ABBREVIATIONS USED IN REMARKS
   TC - TEMPERATURE IN CELSIUS
  WCI - WIND CHILL INDEX
   HX - HEAT INDEX
  VSB - VISIBILITY





USA.gov is the U.S. government's official web portal to all federal, state and local government web resources and services.